Regional Weather Roundup
Issued by NWS

Home | Current Version | Previous Version | Text Only | Print | Product List | Glossary Off
Versions: 1 2 3 4 5 6 7 8 9 10 11 12 13 14 15 16 17 18 19 20 21 22 23 24 25 26 27 28 29 30 31 32 33 34 35 36 37 38 39 40 41 42 43 44 45 46 47 48 49 50

000
ASUS43 KLOT 290003
RWRIL

ILLINOIS REGIONAL WEATHER ROUNDUP
NATIONAL WEATHER SERVICE CHICAGO/ROMEOVILLE IL
700 PM CDT THU JUL 28 2016

NOTE: "FAIR" INDICATES FEW OR NO CLOUDS BELOW 12,000 FEET WITH NO
SIGNIFICANT WEATHER AND/OR OBSTRUCTIONS TO VISIBILITY.

* THESE STATIONS ARE NOT UNDER NWS QUALITY CONTROL. THEY ALSO MAY NOT
  REPORT WEATHER SUCH AS PRECIPITATION OR FOG.

ILZ001-002-007-009-015-016-024-290100-
NORTHWEST ILLINOIS

CITY           SKY/WX    TMP DP  RH WIND       PRES   REMARKS
MOLINE         MOSUNNY   83  66  56 NW12      29.88S HX  85
6HR MIN TEMP:  82; 6HR MAX TEMP:  86;

STERLING*      SUNNY     78  69  73 CALM      29.87F HX  80
SAVANNA*       MOSUNNY   76  69  79 CALM      29.88S
$$

ILZ003-004-008-010-011-017-018-290100-
NORTH CENTRAL ILLINOIS

CITY           SKY/WX    TMP DP  RH WIND       PRES   REMARKS
ROCKFORD       MOSUNNY   80  68  66 E6        29.90S HX  83
6HR MIN TEMP:  73; 6HR MAX TEMP:  80;

FREEPORT*      SUNNY     75  69  81 E6        29.90F
ROCHELLE*      MOSUNNY   74  71  88 CALM      29.89R
$$

ILZ005-006-012>014-019>023-290100-
NORTHEAST ILLINOIS

CITY           SKY/WX    TMP DP  RH WIND       PRES   REMARKS
CHICAGO-OHARE  PTSUNNY   75  70  84 NE12      29.88R
6HR MIN TEMP:  73; 6HR MAX TEMP:  76; 6HR PCP:  0.34;

CHICAGO-MIDWAY CLOUDY    77  71  82 E10       29.87S
6HR MIN TEMP:  74; 6HR MAX TEMP:  84; 6HR PCP:  0.14;

AURORA         PTSUNNY   75  70  84 CALM      29.87F
6HR MIN TEMP:  70; 6HR MAX TEMP:  87; 6HR PCP:  0.22;

LANSING*       CLOUDY    75  69  81 NE6       29.88S
WAUKEGAN       CLOUDY    71  67  87 N8        29.90R
6HR MIN TEMP:  70; 6HR MAX TEMP:  82; 6HR PCP:  0.02;

DUPAGE AIRPORT CLOUDY    75  71  87 E8        29.86F
6HR MIN TEMP:  67; 6HR MAX TEMP:  86; 6HR PCP:  0.61;

KANKAKEE*      SUNNY     76  67  71 E7        29.88R
WHEELING       MOSUNNY   71  67  87 NE10      29.91R
6HR MIN TEMP:  71; 6HR MAX TEMP:  80; 6HR PCP:  0.14;

MORRIS*        PTSUNNY   75  69  82 CALM      29.84F
NORTHERLY ISL    N/A     73  70  90 N8          N/A
$$

LMZ740>746-290100-
SOUTHERN LAKE MICHIGAN

STATION/POSITION SKY/WX   TEMP    WIND        PRES    VSBY  WAVE
                          AIR SEA DIR/SP/G                  HT/PER
                          (F)     (DEG/KT/KT) (MB)    (MI)  (FT/S)
SOUTHERN BUOY              75 77   50/ 14/ 17 1011.5          2/ 6
WILMETTE HARBOR            74 75   40/ 10/ 12   N/A           2/ 4
HARRISON CRIB              74     340/ 13/ 14   N/A
BURNHAM HARBOR             73      10/  7/ 11   N/A
CALUMET HARBOR                    300/  3/  5   N/A
BURNS HARBOR               76      50/  9/ 16 1012.2F
MICHIGAN CITY              77      60/  8/ 10   N/A
MICHIGAN CITY 6N           77 77   60/ 10/ 12   N/A           1/ 2
ST. JOSEPH                 76 78  140/  8/ 10 1012.4S         1
$$

ILZ025>027-034>036-040-047-049-050-058-095>099-290100-
WEST-CENTRAL ILLINOIS

CITY           SKY/WX    TMP DP  RH WIND       PRES   REMARKS
QUINCY         MOSUNNY   81  70  69 N13       29.91R HX  84
GALESBURG*     SUNNY     79  68  69 NW7       29.89F HX  81
MACOMB*        MOSUNNY   78  68  71 NW10      29.92S HX  81
JACKSONVILLE*  SUNNY     81  71  72 NW3       29.88S HX  84
PITTSFIELD*    CLOUDY    82  72  71 NW5       29.91R HX  87
$$

ILZ028>032-037-038-041>044-048-051>054-059>061-290100-
CENTRAL ILLINOIS

CITY           SKY/WX    TMP DP  RH WIND       PRES   REMARKS
PONTIAC        CLOUDY    78  73  83 E3        29.90R HX  80
BLOOMINGTON    CLOUDY    76  70  82 CALM      29.91R
DECATUR        SUNNY     82  68  62 NE6       29.89R HX  85
PEORIA         CLOUDY    79  71  76 SE6       29.89R HX  82
6HR MIN TEMP:  79; 6HR MAX TEMP:  88; 6HR PCP: TRACE;

LACON*         MOSUNNY   76  67  71 S5        29.87S
LINCOLN*       LGT RAIN  74  67  79 CALM      29.89R
SPRINGFIELD    SUNNY     84  72  67 NW6       29.88S HX  89
6HR MIN TEMP:  71; 6HR MAX TEMP:  89; 6HR PCP:  0.42;

TAYLORVILLE    SUNNY     81  74  78 MISG      29.89R HX  86
6HR MIN TEMP:  72; 6HR MAX TEMP:  84; 6HR PCP:  0.50;

$$

ILZ033-039-045-046-055>057-062-063-290100-
EAST-CENTRAL ILLINOIS

CITY           SKY/WX    TMP DP  RH WIND       PRES   REMARKS
CHAMPAIGN      SUNNY     80  72  76 N8        29.90R HX  84
MATTOON        CLOUDY    70  68  93 SW8       29.89R
PARIS*         CLOUDY    80  74  81 CALM      29.88F HX  85
$$

ILZ079-100>102-290100-
SOUTHWEST ILLINOIS

CITY           SKY/WX    TMP DP  RH WIND       PRES   REMARKS
ALTON          MOSUNNY   84  72  65 N9        29.88S HX  89
CAHOKIA*       MOSUNNY   87  69  54 N6        29.87R HX  91
SPARTA*        CLOUDY    82  76  80 CALM      29.88S HX  90
$$

ILZ064>066-069>071-074>076-080>082-084>086-088>090-092>094-290100-
SOUTH-CENTRAL ILLINOIS

CITY           SKY/WX    TMP DP  RH WIND       PRES   REMARKS
CARBONDALE     CLOUDY    77  66  68 SW8       29.89R
6HR MIN TEMP:  75; 6HR MAX TEMP:  89; 6HR PCP:  0.01;

EFFINGHAM*     CLOUDY    81  75  83 NW5       29.91R HX  86
MARION         CLOUDY    79  72  78 SW3       29.90R HX  82
MT. VERNON     MOSUNNY   81  70  69 MISG      29.88R HX  84
CENTRALIA*     CLOUDY    78  70  75 NE6       29.89R HX  81
SALEM*         LGT RAIN  74  71  88 SW5       29.90R
METROPOLIS*    CLOUDY    82  71  70 CALM      29.89S HX  86
$$

ILZ067-068-072-073-078-083-087-091-290100-
SOUTHEAST ILLINOIS

CITY           SKY/WX    TMP DP  RH WIND       PRES   REMARKS
LAWRENCEVILLE  CLOUDY    77  71  82 E12       29.88S
FLORA*         CLOUDY    80  76  86 CALM      29.89S HX  85
FAIRFIELD*     PTSUNNY   80  75  85 CALM      29.87R HX  84
HARRISBURG*    MOSUNNY   76  73  90 SW3       29.88S
ROBINSON*      MOSUNNY   82  76  83 SW5       29.88F HX  88
CARMI*         MOSUNNY   83  78  83 SW5       29.86R HX  94
$$

ABBREVIATIONS USED IN REMARKS
   TC - TEMPERATURE IN CELSIUS
  WCI - WIND CHILL INDEX
   HX - HEAT INDEX
  VSB - VISIBILITY
$$




USA.gov is the U.S. government's official web portal to all federal, state and local government web resources and services.